FW3088 Weather Reports


time (UTC)temp
F
wind
direction
speed
knots
gust
knots
rain 1hr
in
rain 24hr
in
rain mn
in
humidity
%
barometer
mb
20260506002507 66 0 0.0 3.5 0.00 0.00 0.00 70 1014.4
20260506002009 66 178 0.9 3.5 0.00 0.00 0.00 70 1014.5
20260506001527 66 115 0.9 5.2 0.00 0.00 0.00 70 1014.5
20260506001008 66 87 0.9 5.2 0.00 0.00 0.00 70 1014.4
20260506000510 66 112 1.7 5.2 0.00 0.00 0.00 71 1014.2
20260506000030 66 113 0.9 3.5 0.00 0.00 0.00 70 1014.6
20260505235511 66 0 0.9 6.1 0.00 0.00 0.00 71 1014.6
20260505235010 66 109 1.7 6.1 0.00 0.00 0.00 70 1014.4
20260505234530 67 109 0.9 5.2 0.00 0.00 0.00 71 1014.6
20260505234011 65 152 1.7 5.2 0.00 0.00 0.00 71 1014.7
20260505233514 65 138 1.7 5.2 0.00 0.00 0.00 70 1014.7
20260505233028 66 117 1.7 7.0 0.00 0.00 0.00 69 1014.9
20260505232512 66 180 0.9 7.8 0.00 0.00 0.00 71 1014.7
20260505232010 65 116 2.6 7.8 0.00 0.00 0.00 71 1014.8
20260505231545 66 86 1.7 6.1 0.00 0.00 0.00 70 1014.9
20260505231013 66 329 1.7 7.8 0.00 0.00 0.00 69 1015.0
20260505230511 65 177 0.9 7.8 0.00 0.00 0.00 72 1015.0
20260505230030 64 130 0.9 7.8 0.00 0.00 0.00 74 1015.0
20260505225510 64 222 3.5 7.8 0.00 0.00 0.00 72 1015.1
20260505225013 65 159 1.7 8.7 0.00 0.00 0.00 72 1015.1
20260505224528 65 182 1.7 8.7 0.00 0.00 0.00 73 1015.1
20260505224009 64 171 2.6 8.7 0.00 0.00 0.00 73 1015.1
20260505223510 65 147 2.6 8.7 0.00 0.00 0.00 70 1015.2
20260505223029 65 145 0.9 7.0 0.00 0.00 0.00 72 1015.3
20260505222517 65 185 0.9 7.0 0.00 0.00 0.00 70 1015.3
20260505222011 64 109 1.7 6.1 0.00 0.00 0.00 71 1015.3
20260505221530 64 193 0.9 9.6 0.00 0.00 0.00 72 1015.4
20260505221012 63 159 1.7 10.4 0.00 0.00 0.00 74 1015.5
20260505220515 62 130 3.5 10.4 0.00 0.00 0.00 74 1015.5
20260505220031 62 86 2.6 7.8 0.00 0.00 0.00 74 1015.5
20260505215511 61 163 0.9 7.0 0.00 0.00 0.00 75 1015.6
20260505215008 61 195 1.7 7.0 0.00 0.00 0.00 76 1015.7
20260505214535 61 128 1.7 5.2 0.00 0.00 0.00 77 1015.7
20260505214013 61 125 2.6 7.0 0.00 0.00 0.00 77 1015.7
20260505213512 60 0 2.6 7.0 0.00 0.00 0.00 76 1015.7
20260505213036 60 113 2.6 7.0 0.00 0.00 0.00 76 1015.8
20260505212509 61 74 1.7 6.1 0.00 0.00 0.00 75 1015.8
20260505212011 61 324 1.7 6.1 0.00 0.00 0.00 75 1015.7
20260505211530 61 131 0.9 5.2 0.00 0.00 0.00 76 1015.7
20260505211009 61 126 1.7 5.2 0.00 0.00 0.00 75 1015.8
20260505210511 61 0 0.9 5.2 0.00 0.00 0.00 76 1015.8
20260505210028 61 50 0.9 5.2 0.00 0.00 0.00 76 1016.0
20260505205511 61 46 0.0 4.3 0.00 0.00 0.00 76 1015.9
20260505205012 61 46 0.9 6.1 0.00 0.00 0.00 75 1015.9
20260505204529 61 144 1.7 6.1 0.00 0.00 0.00 75 1015.9
20260505204010 61 24 1.7 6.1 0.00 0.00 0.00 75 1015.9
20260505203508 60 287 0.9 6.1 0.00 0.00 0.00 75 1016.0
20260505203043 60 173 1.7 5.2 0.00 0.00 0.00 75 1016.0
20260505202511 60 119 0.9 5.2 0.00 0.00 0.00 76 1016.0
20260505202010 60 120 1.7 6.1 0.00 0.00 0.00 75 1016.0
20260505201536 60 305 1.7 6.1 0.00 0.00 0.00 75 1016.0
20260505201014 60 139 0.9 5.2 0.00 0.00 0.00 76 1016.1
20260505200508 60 176 2.6 5.2 0.00 0.00 0.00 75 1016.1
20260505200030 60 49 0.9 5.2 0.00 0.00 0.00 75 1016.1
20260505195511 60 171 0.9 5.2 0.00 0.00 0.00 75 1016.1
20260505195011 60 29 0.0 4.3 0.00 0.00 0.00 76 1016.2
20260505194527 60 44 0.9 4.3 0.00 0.00 0.00 76 1016.2
20260505194010 59 124 0.9 3.5 0.00 0.00 0.00 78 1016.2
20260505193510 59 57 0.9 2.6 0.00 0.00 0.00 76 1016.2
20260505193032 59 147 0.0 3.5 0.00 0.00 0.00 76 1016.2
20260505192512 59 26 0.9 5.2 0.00 0.00 0.00 76 1016.3
20260505192011 59 0 0.9 5.2 0.00 0.00 0.00 75 1016.2
20260505191526 59 173 0.0 5.2 0.00 0.00 0.00 76 1016.2
20260505191011 58 123 1.7 5.2 0.00 0.00 0.00 75 1016.2
20260505190510 59 341 0.0 4.3 0.00 0.00 0.00 76 1016.0
20260505190030 58 110 1.7 3.5 0.00 0.00 0.00 76 1016.1
20260505185514 58 149 0.9 4.3 0.00 0.00 0.00 76 1016.1
20260505185012 59 173 0.0 4.3 0.00 0.00 0.00 76 1016.2
20260505184535 59 157 0.9 4.3 0.00 0.00 0.00 75 1016.0
20260505184012 59 161 0.0 4.3 0.00 0.00 0.00 75 1016.2
20260505183512 58 202 0.9 3.5 0.00 0.00 0.00 76 1016.1
20260505183027 58 173 0.0 4.3 0.00 0.00 0.00 76 1016.1
20260505182510 58 178 0.9 4.3 0.00 0.00 0.00 76 1016.1
20260505182012 58 135 0.0 2.6 0.00 0.00 0.00 77 1016.1
20260505181535 57 58 0.9 2.6 0.00 0.00 0.00 76 1016.1
20260505181011 58 0 0.0 1.7 0.00 0.00 0.00 76 1016.0
20260505180511 57 0 0.0 2.6 0.00 0.00 0.00 77 1016.1
20260505180026 57 181 0.9 3.5 0.00 0.00 0.00 77 1016.1
20260505175509 57 0 0.0 3.5 0.00 0.00 0.00 77 1016.0
20260505175008 57 0 1.7 3.5 0.00 0.00 0.00 78 1016.1
20260505174538 57 0 0.0 2.6 0.00 0.00 0.00 78 1016.0
20260505174012 56 182 0.9 2.6 0.00 0.00 0.00 77 1016.0
20260505173509 56 0 0.0 1.7 0.00 0.00 0.00 78 1016.0
20260505173030 56 0 0.0 2.6 0.00 0.00 0.00 79 1016.0
20260505172511 56 0 0.9 2.6 0.00 0.00 0.00 78 1016.0
20260505172012 56 178 0.0 1.7 0.00 0.00 0.00 79 1016.0
20260505171528 56 178 0.0 3.5 0.00 0.00 0.00 79 1016.0
20260505171011 56 178 1.7 3.5 0.00 0.00 0.00 79 1016.0
20260505170511 56 213 0.9 3.5 0.00 0.00 0.00 81 1016.1
20260505170028 56 161 0.0 0.9 0.00 0.00 0.00 81 1015.9
20260505165509 56 0 0.0 1.7 0.00 0.00 0.00 81 1016.0
20260505165012 56 161 0.0 1.7 0.00 0.00 0.00 80 1015.9
20260505164527 56 160 0.0 3.5 0.00 0.00 0.00 81 1016.1
20260505164012 56 159 0.0 3.5 0.00 0.00 0.00 81 1016.0
20260505163509 56 162 0.0 2.6 0.00 0.00 0.00 81 1016.0
20260505163034 56 142 0.0 1.7 0.00 0.00 0.00 82 1016.0
20260505162510 55 142 0.0 1.7 0.00 0.00 0.00 82 1015.9
20260505162009 55 0 0.0 2.6 0.00 0.00 0.00 82 1016.0
20260505161528 55 0 0.9 2.6 0.00 0.00 0.00 82 1016.0
20260505161009 55 153 0.0 1.7 0.00 0.00 0.00 83 1016.0
20260505160509 55 153 0.0 1.7 0.00 0.00 0.00 83 1015.9
20260505153027 54 0 0.0 1.7 0.00 0.00 0.00 85 1016.0
20260505152509 54 0 0.0 0.9 0.00 0.00 0.00 86 1015.9
20260505152015 54 0 0.0 1.7 0.00 0.00 0.00 86 1016.0
20260505151527 54 0 0.0 2.6 0.00 0.00 0.00 86 1015.9
20260505151010 54 302 0.0 2.6 0.00 0.00 0.00 86 1015.8
20260505150511 54 0 0.0 1.7 0.00 0.00 0.00 87 1015.9
20260505140508 53 154 0.0 0.9 0.00 0.00 0.00 89 1015.6
20260505125008 52 0 0.0 0.0 0.00 0.00 0.00 91 1015.2
20260505124528 52 0 0.0 0.0 0.00 0.00 0.00 91 1015.1
20260505124008 52 0 0.0 0.0 0.00 0.00 0.00 91 1015.0
20260505123511 52 0 0.0 0.0 0.00 0.00 0.00 91 1015.1
20260505123027 52 0 0.0 0.0 0.00 0.00 0.00 91 1015.2
20260505122510 53 0 0.0 0.0 0.00 0.00 0.00 91 1015.0
20260505122011 53 0 0.0 0.0 0.00 0.00 0.00 91 1015.0
20260505121528 53 0 0.0 0.0 0.00 0.00 0.00 90 1014.9
20260505121011 53 0 0.0 0.0 0.00 0.00 0.00 90 1014.8
20260505120514 52 0 0.0 0.0 0.00 0.00 0.00 90 1014.7
20260505120030 52 0 0.0 1.7 0.00 0.00 0.00 90 1014.8
20260505115509 52 0 0.0 1.7 0.00 0.00 0.00 90 1014.8
20260505115010 52 154 0.0 1.7 0.00 0.00 0.00 90 1014.9
20260505114527 52 154 0.0 2.6 0.00 0.00 0.00 90 1014.9
20260505114016 52 155 0.9 2.6 0.00 0.00 0.00 90 1014.9
20260505113510 52 0 0.0 0.9 0.00 0.00 0.00 90 1014.9
20260505113028 52 0 0.0 0.9 0.00 0.00 0.00 90 1014.9
20260505112512 52 0 0.0 0.9 0.00 0.00 0.00 90 1014.9
20260505112011 52 155 0.0 0.9 0.00 0.00 0.00 90 1014.9
20260505111529 52 0 0.0 0.9 0.00 0.00 0.00 90 1015.0
20260505111010 52 0 0.0 0.9 0.00 0.00 0.00 90 1015.0
20260505110509 52 0 0.0 0.9 0.00 0.00 0.00 91 1014.9
20260505102007 52 0 0.0 1.7 0.00 0.00 0.00 91 1014.7
20260505101532 52 0 0.0 0.9 0.00 0.00 0.00 91 1014.6
20260505101007 52 0 0.0 1.7 0.00 0.00 0.00 91 1014.7
20260505100510 52 0 0.0 1.7 0.00 0.00 0.00 91 1014.7
20260505100028 52 142 0.0 1.7 0.00 0.00 0.00 91 1014.8
20260505095510 52 0 0.0 1.7 0.00 0.00 0.00 91 1014.6
20260505095012 53 142 0.0 0.9 0.00 0.00 0.00 91 1014.7
20260505094528 53 0 0.0 1.7 0.00 0.00 0.00 91 1014.5
20260505094010 53 0 0.0 2.6 0.00 0.00 0.00 91 1014.6
20260505093511 53 142 0.0 2.6 0.00 0.00 0.00 90 1014.7
20260505093032 53 142 0.0 2.6 0.00 0.00 0.00 90 1014.7
20260505092511 53 0 0.0 1.7 0.00 0.00 0.00 90 1014.6
20260505092011 53 0 0.0 1.7 0.00 0.00 0.00 90 1014.7
20260505091529 53 0 0.0 2.6 0.00 0.00 0.00 90 1014.6
20260505091008 53 143 0.9 2.6 0.00 0.00 0.00 90 1014.4
20260505090508 53 143 0.0 0.9 0.00 0.00 0.00 90 1014.4
20260505090038 53 0 0.0 0.9 0.00 0.00 0.00 90 1014.4
20260505085510 53 0 0.0 1.7 0.00 0.00 0.00 90 1014.3
20260505085011 53 142 0.0 1.7 0.00 0.00 0.00 90 1014.4
20260505084530 53 146 0.0 3.5 0.00 0.00 0.00 90 1014.4
20260505084010 53 0 0.0 3.5 0.00 0.00 0.00 89 1014.4
20260505083510 53 107 0.0 2.6 0.00 0.00 0.00 89 1014.3
20260505083028 53 107 0.9 2.6 0.00 0.00 0.00 89 1014.5
20260505082511 53 200 0.0 3.5 0.00 0.00 0.00 89 1014.4
20260505082010 53 205 0.9 3.5 0.00 0.00 0.00 88 1014.5
20260505081535 53 0 0.9 1.7 0.00 0.00 0.00 88 1014.5
20260505081007 53 0 0.0 1.7 0.00 0.00 0.00 88 1014.4
20260505080510 54 0 0.0 2.6 0.00 0.00 0.00 87 1014.7
20260505080030 54 0 0.0 2.6 0.00 0.00 0.00 87 1014.7
20260505075508 54 0 0.9 2.6 0.00 0.00 0.00 87 1014.7
20260505075008 54 0 0.0 1.7 0.00 0.00 0.00 86 1014.7
20260505074530 54 121 0.0 1.7 0.00 0.00 0.00 86 1014.6
20260505074009 54 0 0.0 1.7 0.00 0.00 0.00 86 1014.6
20260505073509 54 0 0.0 1.7 0.00 0.00 0.00 86 1014.7
20260505073037 54 0 0.0 1.7 0.00 0.00 0.00 85 1014.6
20260505072511 54 111 0.0 1.7 0.00 0.00 0.00 85 1014.6
20260505072010 54 0 0.0 4.3 0.00 0.00 0.00 85 1014.7
20260505071526 54 105 0.9 4.3 0.00 0.00 0.00 85 1014.7
20260505071010 54 134 0.9 3.5 0.00 0.00 0.00 85 1014.6
20260505070510 54 153 0.9 3.5 0.00 0.00 0.00 85 1014.4
20260505070027 54 147 0.9 3.5 0.00 0.00 0.00 84 1014.4
20260505065510 54 123 1.7 3.5 0.00 0.00 0.00 84 1014.3
20260505065007 54 117 0.9 2.6 0.00 0.00 0.00 84 1014.4
20260505064527 54 11 0.9 4.3 0.00 0.00 0.00 84 1014.3
20260505064008 54 0 0.9 4.3 0.00 0.00 0.00 84 1014.3
20260505063508 55 171 1.7 3.5 0.00 0.00 0.00 83 1014.3
20260505063030 55 167 0.9 3.5 0.00 0.00 0.00 83 1014.2
20260505062514 55 103 0.9 5.2 0.00 0.00 0.00 83 1014.2
20260505062012 55 157 1.7 5.2 0.00 0.00 0.00 83 1014.3
20260505061530 55 104 0.9 3.5 0.00 0.00 0.00 83 1014.2
20260505061011 55 168 0.0 3.5 0.00 0.00 0.00 83 1014.1
20260505060513 55 150 0.9 3.5 0.00 0.00 0.00 83 1014.1
20260505060032 55 140 0.0 4.3 0.00 0.00 0.00 83 1014.2
20260505055513 55 237 0.0 4.3 0.00 0.00 0.00 83 1014.2
20260505055014 55 148 0.9 4.3 0.00 0.00 0.00 82 1014.2
20260505054536 55 181 0.9 4.3 0.00 0.00 0.00 83 1014.1
20260505054019 55 195 0.0 3.5 0.00 0.00 0.00 83 1014.1
20260505053514 55 128 0.9 3.5 0.00 0.00 0.00 83 1014.1
20260505053038 55 180 0.9 5.2 0.00 0.00 0.00 83 1013.9
20260505052509 55 160 1.7 5.2 0.00 0.00 0.00 83 1014.1
20260505052011 55 107 0.9 3.5 0.00 0.00 0.00 83 1014.0
20260505051528 55 164 0.9 3.5 0.00 0.00 0.00 83 1013.9
20260505051009 55 0 0.0 3.5 0.00 0.00 0.00 83 1014.0
20260505050510 55 144 0.9 4.3 0.00 0.00 0.00 83 1014.0
20260505041528 55 93 0.0 3.5 0.00 0.00 0.00 85 1013.6
20260505041009 55 103 0.0 3.5 0.00 0.00 0.00 84 1013.6
20260505040508 55 103 0.0 3.5 0.00 0.00 0.00 84 1013.4
20260505040028 55 0 0.0 1.7 0.00 0.00 0.00 83 1013.3
20260505035511 56 0 0.0 1.7 0.00 0.00 0.00 82 1013.4
20260505035008 56 0 0.0 1.7 0.00 0.00 0.00 81 1013.3
20260505034529 56 153 0.0 2.6 0.00 0.00 0.00 81 1013.3
20260505034010 57 0 0.9 2.6 0.00 0.00 0.00 81 1013.2
20260505033511 57 137 0.9 2.6 0.00 0.00 0.00 80 1013.2
20260505033037 57 114 0.0 2.6 0.00 0.00 0.00 80 1013.0
20260505032510 57 113 0.9 2.6 0.00 0.00 0.00 80 1013.1
20260505032013 58 0 0.0 2.6 0.00 0.00 0.00 80 1013.0
20260505031529 58 111 0.9 3.5 0.00 0.00 0.00 79 1012.9
20260505031010 58 0 1.7 4.3 0.00 0.00 0.00 79 1012.8
20260505030509 58 176 0.0 5.2 0.00 0.00 0.00 79 1012.6
20260505030029 59 182 0.9 6.1 0.00 0.00 0.00 78 1012.5
20260505025508 59 98 1.7 6.1 0.00 0.00 0.00 78 1012.4
20260505025006 59 126 2.6 5.2 0.00 0.00 0.00 78 1012.3
20260505024528 59 139 0.9 3.5 0.00 0.00 0.00 77 1012.2
20260505024011 59 0 0.9 5.2 0.00 0.00 0.00 77 1012.2
20260505023510 60 130 1.7 5.2 0.00 0.00 0.00 76 1012.2
20260505023028 60 80 0.9 3.5 0.00 0.00 0.00 76 1012.0
20260505022510 60 0 0.0 4.3 0.00 0.00 0.00 76 1012.1
20260505022010 61 112 0.9 4.3 0.00 0.00 0.00 75 1012.1
20260505021528 61 0 0.9 3.5 0.00 0.00 0.00 75 1012.0
20260505021008 61 0 0.9 4.3 0.00 0.00 0.00 74 1011.9
20260505020510 61 243 1.7 4.3 0.00 0.00 0.00 74 1012.0
20260505020029 62 333 0.9 3.5 0.00 0.00 0.00 74 1011.9
20260505015510 62 82 0.9 3.5 0.00 0.00 0.00 74 1012.0
20260505015010 62 99 0.9 3.5 0.00 0.00 0.00 74 1012.0
20260505014532 62 13 0.9 3.5 0.00 0.00 0.00 73 1012.0
20260505014008 63 126 0.0 3.5 0.00 0.00 0.00 73 1012.0
20260505013508 63 117 0.9 3.5 0.00 0.00 0.00 73 1011.8
20260505013026 63 0 0.9 3.5 0.00 0.00 0.00 74 1011.9
20260505012507 63 0 0.9 6.1 0.00 0.00 0.00 72 1011.9
20260505012011 64 209 1.7 6.1 0.00 0.00 0.00 71 1011.9
20260505011526 64 59 0.9 6.1 0.00 0.00 0.00 71 1011.9
20260505011007 64 155 0.9 3.5 0.00 0.00 0.00 71 1012.0
20260505010508 64 100 0.9 3.5 0.00 0.00 0.00 71 1011.9
20260505010026 64 190 0.0 3.5 0.00 0.00 0.00 71 1012.0
20260505005507 65 207 0.0 6.1 0.00 0.00 0.00 70 1011.9
20260505005007 65 76 0.9 7.0 0.00 0.00 0.00 70 1012.0
20260505004539 65 84 1.7 7.0 0.00 0.00 0.00 68 1011.9
20260505004007 65 0 0.9 5.2 0.00 0.00 0.00 69 1011.9
20260505003515 66 108 0.9 7.8 0.00 0.00 0.00 68 1011.9
20260505003028 66 50 1.7 7.8 0.00 0.00 0.00 68 1011.8